AB7AZ Weather Reports


time (UTC)temp
F
wind
direction
speed
knots
gust
knots
rain 1hr
in
rain 24hr
in
rain mn
in
humidity
%
barometer
mb
20260505014116 70 238 2.6 7.0 0.00 0.00 0.00 31 1008.7
20260505013054 71 214 2.6 7.0 0.00 0.00 0.00 32 1008.8
20260505012052 71 221 1.7 5.2 0.00 0.00 0.00 30 1008.6
20260505011036 71 227 2.6 6.1 0.00 0.00 0.00 33 1008.6
20260505010058 71 231 2.6 7.8 0.00 0.00 0.00 32 1008.9
20260505005116 72 174 3.5 7.8 0.00 0.00 0.00 33 1008.8
20260505003029 72 202 3.5 7.8 0.00 0.00 0.00 33 1009.0
20260505002019 72 209 3.5 9.6 0.00 0.00 0.00 34 1009.1
20260505001029 73 250 3.5 10.4 0.00 0.00 0.00 32 1009.2
20260505000037 73 210 2.6 10.4 0.00 0.00 0.00 31 1009.2
20260504235007 73 214 2.6 9.6 0.00 0.00 0.00 32 1009.0
20260504234023 73 241 5.2 10.4 0.00 0.00 0.00 30 1008.9
20260504232952 74 213 4.3 10.4 0.00 0.00 0.00 32 1008.8
20260504230757 73 208 3.5 10.4 0.00 0.00 0.00 32 1008.8
20260504223548 73 272 3.5 10.4 0.00 0.00 0.00 32 1009.0
20260504221458 74 188 6.1 12.2 0.00 0.00 0.00 30 1009.3
20260504220458 74 224 4.3 12.2 0.00 0.00 0.00 33 1009.4
20260504215455 74 215 5.2 10.4 0.00 0.00 0.00 33 1009.6
20260504214446 74 233 4.3 10.4 0.00 0.00 0.00 33 1009.6
20260504213443 73 217 5.2 10.4 0.00 0.00 0.00 35 1009.9
20260504212449 74 230 5.2 11.3 0.00 0.00 0.00 33 1009.7
20260504211506 72 198 4.3 11.3 0.00 0.00 0.00 36 1010.0
20260504210431 73 221 4.3 10.4 0.00 0.00 0.00 36 1010.1
20260504205420 72 220 4.3 9.6 0.00 0.00 0.00 38 1010.0
20260504204433 73 236 4.3 10.4 0.00 0.00 0.00 37 1010.0
20260504203408 73 182 3.5 10.4 0.00 0.00 0.00 38 1010.3
20260504202402 72 233 5.2 9.6 0.00 0.00 0.00 40 1010.2
20260504201422 72 256 4.3 9.6 0.00 0.00 0.00 41 1010.2
20260504200419 72 263 3.5 9.6 0.00 0.00 0.00 40 1010.3
20260504194339 72 220 5.2 11.3 0.00 0.00 0.00 40 1010.1
20260504191058 72 200 2.6 9.6 0.00 0.00 0.00 42 1010.0
20260504184925 71 192 2.6 7.8 0.00 0.00 0.00 44 1010.1
20260504183910 70 59 3.5 8.7 0.00 0.00 0.00 44 1010.2
20260504182929 71 235 3.5 8.7 0.00 0.00 0.00 44 1010.3
20260504181950 70 136 4.3 8.7 0.00 0.00 0.00 45 1010.3
20260504180935 70 240 4.3 8.7 0.00 0.00 0.00 45 1010.5
20260504175923 70 217 4.3 9.6 0.00 0.00 0.00 45 1010.3
20260504174854 70 263 4.3 9.6 0.00 0.00 0.00 45 1010.1
20260504173840 70 221 1.7 7.8 0.00 0.00 0.00 44 1009.5
20260504172815 69 200 1.7 8.7 0.00 0.00 0.00 45 1009.4
20260504171833 69 207 2.6 8.7 0.00 0.00 0.00 45 1009.7
20260504170805 69 234 3.5 8.7 0.00 0.00 0.00 45 1010.2
20260504150615 70 188 1.7 4.3 0.00 0.00 0.00 38 1009.7
20260504140457 67 120 0.0 0.0 0.00 0.00 0.00 43 1009.0
20260504130139 64 120 0.0 0.0 0.00 0.00 0.00 45 1008.6
20260504081720 70 98 0.0 0.0 0.00 0.00 0.00 38 1007.6
20260504080710 70 174 0.0 0.0 0.00 0.00 0.00 37 1007.7
20260504050409 75 253 1.7 7.8 0.00 0.00 0.00 24 1007.8
20260504045409 76 266 0.9 6.1 0.00 0.00 0.00 24 1007.7
20260504043217 77 191 3.5 8.7 0.00 0.00 0.00 22 1007.7
20260504042235 77 224 1.7 7.0 0.00 0.00 0.00 21 1007.5
20260504041252 78 167 3.5 15.6 0.00 0.00 0.00 20 1007.2
20260504040219 78 224 6.1 15.6 0.00 0.00 0.00 20 1007.1
20260504035156 79 246 5.2 12.2 0.00 0.00 0.00 20 1006.7
20260504034208 79 227 3.5 12.2 0.00 0.00 0.00 19 1006.5
20260504033144 79 217 6.1 12.2 0.00 0.00 0.00 19 1006.1
20260504032133 80 253 6.1 13.0 0.00 0.00 0.00 19 1006.0
20260504031144 80 147 5.2 13.0 0.00 0.00 0.00 19 1005.9
20260504030120 80 206 6.1 13.0 0.00 0.00 0.00 19 1005.7
20260504021737 82 217 7.8 14.8 0.00 0.00 0.00 18 1005.0
20260504020751 82 206 6.1 14.8 0.00 0.00 0.00 18 1004.8
20260504015717 83 217 6.1 14.8 0.00 0.00 0.00 17 1004.5